Weather History for KHAF - September, 2013

Change the Weather History Date:

Friday, September 13, 2013

  Actual Average Record
Temperature  
Mean Temperature 58 °F -  
Max Temperature 59 °F 66 °F 64 °F (2014)
Min Temperature 57 °F 51 °F 53 °F (2012)
Degree Days  
Heating Degree Days 7    
Growing Degree Days 8 (Base 50)    
Moisture  
Dew Point 57 °F    
Average Humidity 97    
Maximum Humidity 100    
Minimum Humidity 88    
Precipitation  
Precipitation 0.01 in - - ()
Sea Level Pressure  
Sea Level Pressure 29.90 in    
Wind  
Wind Speed 9 mph (NNW)    
Max Wind Speed 17 mph    
Max Gust Speed 23 mph    
Visibility 4 miles    
Events Fog , Rain    
Averages and records for this station are not official NWS values.
T = Trace of Precipitation, MM = Missing Value Source: NWS Daily Summary

Daily Weather History Graph

Daily Weather History Graph

Search for Another Location

Airport or City:

Trip Planner

Search our weather history database for the weather conditions in past years. The results will help you decide how hot, cold, wet, or windy it might be!

Date:

Astronomy

Sep. 13, 2013 Rise Set
Actual Time 6:50 AM PDT 7:20 PM PDT
Civil Twilight 6:24 AM PDT 7:46 PM PDT
Nautical Twilight 5:53 AM PDT 8:17 PM PDT
Astronomical Twilight 5:21 AM PDT 8:48 PM PDT
Moon 3:10 PM PDT (9/13) 12:30 AM PDT (9/13)
Length of Visible Light 13h 22m
Length of Day
12h 29m
Waxing Gibbous, 62% of the Moon is Illuminated
Sep 13
Waxing Gibbous
Sep 19
Full
Sep 26
Last Quarter
Oct 4
New
Oct 11
First Quarter

Hourly Weather History & Observations

Time (PDT) Temp. Dew Point Humidity Pressure Visibility Wind Dir Wind Speed Gust Speed Precip Events Conditions
12:15 AM 57.2 °F 57.2 °F 100% 29.95 in 1.5 mi North 4.6 mph - N/A   Overcast
12:35 AM 57.2 °F 57.2 °F 100% 29.95 in 4.0 mi NNW 5.8 mph - N/A   Overcast
12:55 AM 57.2 °F 57.2 °F 100% 29.94 in 2.0 mi NNW 5.8 mph - N/A   Overcast
1:15 AM 57.2 °F 57.2 °F 100% 29.94 in 1.2 mi NNW 5.8 mph - 0.01 in   Overcast
1:35 AM 57.2 °F 57.2 °F 100% 29.95 in 1.2 mi North 6.9 mph - 0.01 in   Mist
1:55 AM 57.2 °F 57.2 °F 100% 29.94 in 1.2 mi NNW 8.1 mph - 0.01 in   Mist
2:15 AM 57.2 °F 57.2 °F 100% 29.95 in 2.0 mi NNW 6.9 mph - N/A   Mist
2:30 AM 57.2 °F 57.2 °F 100% 29.95 in 1.5 mi North 5.8 mph - N/A   Overcast
2:55 AM 57.2 °F 57.2 °F 100% 29.94 in 1.0 mi North 4.6 mph - N/A   Mist
3:15 AM 57.2 °F 57.2 °F 100% 29.93 in 1.0 mi NNW 6.9 mph - N/A   Mist
3:35 AM 57.2 °F 57.2 °F 100% 29.93 in 1.0 mi North 10.4 mph - N/A   Mist
3:55 AM 57.2 °F 57.2 °F 100% 29.92 in 5.0 mi NNW 11.5 mph 17.3 mph N/A Rain Light Rain
4:15 AM 57.2 °F 57.2 °F 100% 29.92 in 10.0 mi NNW 9.2 mph - N/A   Overcast
4:35 AM 57.2 °F 57.2 °F 100% 29.92 in 1.2 mi North 5.8 mph - N/A   Overcast
4:55 AM 57.2 °F 57.2 °F 100% 29.92 in 2.5 mi North 4.6 mph - N/A   Overcast
5:15 AM 57.2 °F 57.2 °F 100% 29.92 in 1.2 mi NNW 5.8 mph - N/A   Overcast
5:35 AM 57.2 °F 57.2 °F 100% 29.92 in 1.8 mi North 6.9 mph - N/A   Overcast
5:55 AM 57.2 °F 57.2 °F 100% 29.92 in 2.5 mi NNW 5.8 mph - N/A   Overcast
6:15 AM 57.2 °F 57.2 °F 100% 29.92 in 2.5 mi NNW 6.9 mph - N/A   Overcast
6:35 AM 57.2 °F 57.2 °F 100% 29.92 in 2.0 mi North 8.1 mph - N/A   Overcast
6:55 AM 57.2 °F 57.2 °F 100% 29.92 in 2.0 mi NNW 9.2 mph - N/A   Overcast
7:15 AM 57.2 °F 57.2 °F 100% 29.93 in 0.8 mi NNW 9.2 mph - N/A   Overcast
7:35 AM 57.2 °F 57.2 °F 100% 29.93 in 0.5 mi NNW 9.2 mph - N/A Fog Fog
7:55 AM 57.2 °F 55.4 °F 94% 29.94 in 0.8 mi NNW 10.4 mph - N/A   Overcast
8:15 AM 57.2 °F 55.4 °F 94% 29.94 in 1.8 mi NNW 6.9 mph - N/A   Overcast
8:35 AM 57.2 °F 55.4 °F 94% 29.93 in 1.0 mi NNW 9.2 mph - N/A   Overcast
8:55 AM 57.2 °F 57.2 °F 100% 29.94 in 1.0 mi NNW 11.5 mph - N/A   Overcast
9:15 AM 57.2 °F 57.2 °F 100% 29.93 in 1.5 mi NNW 10.4 mph - N/A   Overcast
9:35 AM 57.2 °F 57.2 °F 100% 29.93 in 0.8 mi NNW 9.2 mph - N/A   Overcast
9:55 AM 57.2 °F 57.2 °F 100% 29.94 in 2.0 mi NNW 10.4 mph - N/A   Overcast
10:15 AM 57.2 °F 57.2 °F 100% 29.94 in 1.8 mi NNW 10.4 mph - N/A   Overcast
10:35 AM 57.2 °F 57.2 °F 100% 29.94 in 1.8 mi North 8.1 mph - N/A   Overcast
10:55 AM 57.2 °F 57.2 °F 100% 29.93 in 1.8 mi North 9.2 mph - N/A   Overcast
11:15 AM 57.2 °F 57.2 °F 100% 29.93 in 2.0 mi NNW 11.5 mph - N/A   Overcast
11:35 AM 57.2 °F 57.2 °F 100% 29.92 in 3.0 mi North 8.1 mph - N/A   Overcast
11:55 AM 57.2 °F 57.2 °F 100% 29.92 in 4.0 mi NNW 13.8 mph - N/A   Overcast
12:15 PM 57.2 °F 57.2 °F 100% 29.92 in 7.0 mi NNW 11.5 mph 16.1 mph N/A   Overcast
12:35 PM 57.2 °F 57.2 °F 100% 29.91 in 5.0 mi NNW 13.8 mph - N/A   Overcast
12:55 PM 57.2 °F 57.2 °F 100% 29.91 in 5.0 mi NNW 13.8 mph - N/A   Overcast
1:15 PM 57.2 °F 57.2 °F 100% 29.90 in 6.0 mi NNW 13.8 mph - N/A   Overcast
1:35 PM 57.2 °F 57.2 °F 100% 29.90 in 5.0 mi North 12.7 mph 16.1 mph N/A   Overcast
1:55 PM 59.0 °F 57.2 °F 94% 29.89 in 5.0 mi NNW 15.0 mph - N/A   Overcast
2:15 PM 59.0 °F 57.2 °F 94% 29.89 in 3.0 mi NNW 12.7 mph - N/A   Overcast
2:35 PM 59.0 °F 57.2 °F 94% 29.88 in 5.0 mi NNW 15.0 mph - N/A   Overcast
2:55 PM 59.0 °F 57.2 °F 94% 29.88 in 7.0 mi NNW 12.7 mph - N/A   Overcast
3:15 PM 59.0 °F 57.2 °F 94% 29.88 in 5.0 mi NNW 13.8 mph - N/A   Overcast
3:35 PM 59.0 °F 57.2 °F 94% 29.87 in 5.0 mi NNW 15.0 mph 19.6 mph N/A   Overcast
3:55 PM 59.0 °F 57.2 °F 94% 29.87 in 7.0 mi NNW 13.8 mph 20.7 mph N/A   Overcast
4:15 PM 59.0 °F 57.2 °F 94% 29.86 in 8.0 mi North 12.7 mph 21.9 mph N/A   Overcast
4:35 PM 59.0 °F 57.2 °F 94% 29.85 in 7.0 mi NNW 17.3 mph 23.0 mph N/A   Overcast
4:55 PM 59.0 °F 57.2 °F 94% 29.85 in 5.0 mi North 12.7 mph - N/A   Overcast
5:15 PM 59.0 °F 57.2 °F 94% 29.84 in 5.0 mi NNW 15.0 mph 19.6 mph N/A   Overcast
5:35 PM 59.0 °F 57.2 °F 94% 29.84 in 6.0 mi NNW 15.0 mph 21.9 mph N/A   Overcast
5:55 PM 59.0 °F 57.2 °F 94% 29.83 in 6.0 mi NNW 12.7 mph - N/A   Overcast
6:15 PM 59.0 °F 55.4 °F 88% 29.84 in 7.0 mi NNW 15.0 mph 19.6 mph N/A   Overcast
6:35 PM 59.0 °F 55.4 °F 88% 29.84 in 7.0 mi NNW 12.7 mph 18.4 mph N/A   Overcast
6:55 PM 57.2 °F 55.4 °F 94% 29.83 in 6.0 mi NNW 13.8 mph - N/A   Overcast
7:15 PM 57.2 °F 55.4 °F 94% 29.83 in 6.0 mi NNW 11.5 mph - N/A   Overcast
7:35 PM 57.2 °F 55.4 °F 94% 29.83 in 8.0 mi NNW 11.5 mph 18.4 mph N/A   Overcast
7:55 PM 57.2 °F 55.4 °F 94% 29.83 in 7.0 mi NNW 11.5 mph 17.3 mph N/A   Overcast
8:15 PM 57.2 °F 55.4 °F 94% 29.83 in 9.0 mi North 15.0 mph 18.4 mph N/A   Overcast
8:35 PM 57.2 °F 55.4 °F 94% 29.84 in 8.0 mi NNW 10.4 mph - N/A   Overcast
8:55 PM 57.2 °F 55.4 °F 94% 29.84 in 7.0 mi NNW 12.7 mph - N/A   Overcast
9:15 PM 57.2 °F 55.4 °F 94% 29.85 in 5.0 mi NNW 11.5 mph - N/A   Overcast
9:35 PM 57.2 °F 55.4 °F 94% 29.85 in 6.0 mi NNW 9.2 mph - N/A   Overcast
9:55 PM 57.2 °F 55.4 °F 94% 29.85 in 5.0 mi NNW 11.5 mph - N/A   Overcast
10:15 PM 57.2 °F 55.4 °F 94% 29.85 in 5.0 mi NNW 9.2 mph - N/A   Overcast
10:35 PM 57.2 °F 55.4 °F 94% 29.85 in 7.0 mi NNW 10.4 mph - N/A   Overcast
10:55 PM 57.2 °F 55.4 °F 94% 29.85 in 5.0 mi NW 11.5 mph - N/A   Overcast
11:15 PM 57.2 °F 55.4 °F 94% 29.85 in 5.0 mi NW 12.7 mph 18.4 mph N/A   Overcast
11:35 PM 57.2 °F 55.4 °F 94% 29.85 in 5.0 mi NNW 10.4 mph - N/A   Overcast
11:55 PM 57.2 °F 55.4 °F 94% 29.85 in 4.0 mi NNW 11.5 mph - N/A   Overcast